Regional Weather Roundup
Issued by NWS

Home | Current Version | Previous Version | Graphics & Text | Print | Product List | Glossary Off
Versions: 1 2 3 4 5 6 7 8 9 10 11 12 13 14 15 16 17 18 19 20 21 22 23 24 25 26 27 28 29 30 31 32 33 34 35 36 37 38 39 40 41 42 43 44 45 46 47 48 49 50

000
ASUS43 KLSX 031007
RWRMO

WEATHER SUMMARY FOR MISSOURI
NATIONAL WEATHER SERVICE SPRINGFIELD MO
400 AM CST TUE MAR 03 2015

NOTE: "FAIR" INDICATES FEW OR NO CLOUDS BELOW 12,000 FEET WITH NO
       SIGNIFICANT WEATHER AND/OR OBSTRUCTIONS TO VISIBILITY.
       CURRENT SKY AND/OR WEATHER CONDITIONS ARE NOT AVAILABLE FOR
       CHILLICOTHE AND FARMINGTON.

MOZ001>031-035>038-043-044-053-054-031100-
...NORTHERN AND WESTERN MISSOURI...

CITY           SKY/WX    TMP DP  RH WIND       PRES   REMARKS
KANSAS CTY INT DRIZZLE   34  32  92 S17       29.77F WCI  23
KANSAS C DTWN  CLOUDY    35  33  92 S9        29.81F FOG     WCI  28
LEE`S SUMMIT   CLOUDY    34  32  92 S12       29.81F FOG     WCI  25
ST JOSEPH      CLOUDY    34  32  92 S14       29.77F FOG     WCI  25
CHILLICOTHE      N/A     32  29  88 SE8       29.86F WCI  25
KIRKSVILLE     CLOUDY    29  27  92 S14       29.90F WCI  18

$$
MOZ066>068-077>081-088>096-101>105-031100-
...SOUTHWEST MISSOURI...

CITY           SKY/WX    TMP DP  RH WIND       PRES   REMARKS
SPRINGFIELD    CLOUDY    34  29  82 S17       29.90F WCI  23
JOPLIN         CLOUDY    37  35  92 S16G28    29.90F WCI  28

$$
MOZ032>034-039>042-045>050-055>058-069>072-031100-
...CENTRAL MISSOURI...

CITY           SKY/WX    TMP DP  RH WIND       PRES   REMARKS
COLUMBIA       CLOUDY    34  25  69 S8        29.92F WCI  27
JEFFERSON CITY CLOUDY    36  27  69 SE7       29.94F
ROLLA          CLOUDY    34  29  82 S17       29.91F WCI  23
SEDALIA        CLOUDY    36  28  73 S12       29.90F WCI  28
WHITEMAN AFB   CLOUDY    35  29  81 S12       29.86F WCI  26
WARRENSBURG    CLOUDY    34  30  86 SE10      29.86F WCI  26
OSAGE BEACH    CLOUDY    36  28  75 S13G18    29.91F WCI  27

$$
MOZ051-052-059>065-031100-
...EAST CENTRAL MISSOURI...

CITY           SKY/WX    TMP DP  RH WIND       PRES   REMARKS
ST LOUIS INTL  CLOUDY    34  23  64 SE9       29.99F WCI  27
SPIRIT OF STL  CLOUDY    33  24  69 E3        29.98F
ST CHARLES     CLOUDY    32  25  75 SE10      30.00F WCI  24

$$
MOZ072>076-082>087-097>100-106>115-031100-
...SOUTH CENTRAL AND SOUTHEAST MISSOURI...

CITY           SKY/WX    TMP DP  RH WIND       PRES   REMARKS
CAPE GIRARDEAU CLOUDY    35  27  72 SE6       30.06F
FARMINGTON     CLOUDY    34  25  69 S15G22    30.02F WCI  24
POPLAR BLUFF   CLOUDY    34  26  72 CALM      30.07S
WEST PLAINS    CLOUDY    31  28  89 S8        30.01F FOG     WCI  23

$$



USA.gov is the U.S. government's official web portal to all federal, state and local government web resources and services.